Location: Augustenthal
(51.7167°N, 10.2833°E)
Time: 17:40:41
(UTC+00:00)

JB-3 - Pass Details

Date: 18 May 2021
Orbit: 525 x 589 km, 97.3° (Epoch: 22 June)

Event Time Altitude Azimuth Distance (km) Brightness Sun altitude
Rises 20:57:50 0° 11° (NNE) 2,698 8.6 -12.5°
Reaches altitude 10° 20:59:59 10° 10° (N) 1,795 7.7 -12.7°
Maximum altitude 21:03:50 75° 286° (WNW) 554 4.4 -13.0°
Drops below altitude 10° 21:07:38 10° 201° (SSW) 1,765 6.5 -13.3°
Enters shadow 21:07:46 - 201° (SSW) 1,823 6.6 -13.3°
